SCP
-0 -0 -0 -0 -0 -0 -0 -0 -0 0 0 0 0 0 0 0 0 0 0 0 0 0 0 0 0 0 0 0 0 0 0 0 0 -0 -0 -0 -0 -0 -0 -0 -0 -0 -0
-0 -0 -0 -1 -0 -0 -0 -0 -0 -0 -0 -0 0 0 0 0 0 0 0 0 0 0 0 0 0 0 0 0 0 0 0 0 0 0 0 -0 -0 -0 -0 -0 -0 -0 -0
-0 -0 -0 -0 -1 -0 -0 -0 -0 -0 -0 -0 -0 -0 -0 0 0 0 0 0 0 0 0 0 0 0 0 0 0 0 0 0 0 0 -0 -0 0 -0 -0 -0 -0 -0 -0
-0 -0 -0 -0 -0 -0 -0 -0 -0 -0 -0 -0 0 0 0 0 0 0 0 0 0 0 0 0 0 0 0 0 0 0 0 0 0 0 0 0 0 0 0 0 0 0 -0
0 -0 -0 -0 -0 -0 -0 -0 -0 -0 -0 -0 -0 -0 -0 0 0 0 0 0 0 0 0 0 0 0 0 0 0 0 0 0 0 0 0 0 0 0 0 0 0 0 0
-0 -0 -0 -0 -0 -0 -0 -0 -0 -0 -0 -0 -0 -0 -0 -0 0 0 0 0 0 0 0 0 0 0 0 0 0 0 0 0 0 0 0 0 0 0 0 0 0 0 0
0 0 -0 -0 -0 -0 -0 -0 0 0 0 0 -0 -0 0 0 0 0 0 0 0 0 0 0 0 0 0 0 0 0 0 0 0 0 0 0 0 0 0 0 0 0 0
0 0 0 -0 -0 -0 -0 0 0 0 0 0 0 0 0 0 0 0 0 0 0 0 0 0 0 0 0 0 0 0 0 0 0 0 0 0 0 0 0 0 0 0 0
0 0 0 0 0 0 -0 0 0 0 0 0 0 0 0 0 0 0 0 0 0 0 0 0 0 0 0 0 0 0 0 0 0 0 0 0 0 0 0 0 0 0 0
0 0 0 0 0 0 0 0 0 0 0 0 0 0 0 0 0 0 0 0 0 0 0 0 0 0 0 0 0 0 0 0 0 0 0 0 0 0 0 0 0 0 0
0 0 0 0 0 0 0 0 0 0 0 0 0 0 0 0 0 0 0 0 0 0 0 0 0 0 0 0 0 0 0 0 0 0 0 0 0 0 0 0 0 0 0
0 0 0 0 0 0 0 0 0 0 0 0 0 0 0 0 0 0 0 0 0 0 0 0 0 0 0 0 0 0 0 0 0 0 0 0 0 0 0 0 0 0 0
0 0 0 0 0 0 0 0 0 0 0 0 0 0 0 0 0 0 0 0 0 0 0 0 0 0 0 0 0 0 0 0 0 0 0 0 0 0 0 0 0 0 0
0 0 0 0 0 0 0 0 0 0 0 0 0 0 0 0 0 0 0 0 0 0 0 0 0 0 0 0 0 0 0 0 0 0 0 0 0 0 0 0 0 0 0
0 0 0 0 0 0 0 0 0 0 0 0 0 0 0 0 0 0 0 0 0 0 0 0 0 0 0 0 0 0 0 0 0 0 0 0 0 0 0 0 0 0 0
0 0 0 0 0 0 0 0 0 0 0 0 0 0 0 0 0 0 0 0 0 0 0 0 0 0 0 0 0 0 0 0 0 0 0 0 0 0 0 0 0 0 0
0 0 0 0 0 0 0 0 0 0 0 0 0 0 0 0 0 0 0 0 0 0 0 0 0 0 0 0 0 0 0 0 0 0 0 0 0 0 0 0 0 0 0
0 0 0 0 0 0 0 0 0 0 0 0 0 0 0 0 0 0 0 0 0 0 0 0 0 0 0 0 0 0 0 0 0 0 0 0 0 0 0 0 0 0 0
0 0 0 0 0 0 0 0 0 0 0 0 0 0 0 0 0 0 0 0 0 0 0 0 0 0 0 0 0 0 0 0 0 0 0 0 0 0 0 0 0 0 0
0 0 0 0 0 0 0 0 0 0 0 0 0 0 0 0 0 0 0 0 0 0 0 0 0 0 0 0 0 0 0 0 0 0 0 0 0 0 0 0 0 0 0
0 0 0 0 0 0 0 0 0 0 0 0 0 0 0 0 0 0 0 0 0 0 0 0 0 0 0 0 0 0 0 0 0 0 0 0 0 0 0 0 0 0 0
0 0 0 0 0 0 0 0 0 0 0 0 0 0 0 0 0 0 0 0 0 0 0 0 0 0 0 0 0 0 0 0 0 0 0 0 0 0 0 0 0 0 0
0 0 0 0 0 0 0 0 0 0 0 0 0 0 0 0 0 0 0 0 0 0 0 0 0 0 0 0 0 0 0 0 0 0 0 0 0 0 0 0 0 0 0
0 0 0 0 0 0 0 0 0 0 0 0 0 0 0 0 0 0 0 0 0 0 0 0 0 0 0 0 0 0 0 0 0 0 0 0 0 0 0 0 0 0 0
0 0 0 0 0 0 0 0 0 0 0 0 0 0 0 0 0 0 0 0 0 0 0 0 0 0 0 0 0 0 0 0 0 0 0 0 0 0 0 0 0 0 0
0 0 0 0 0 0 0 0 0 0 0 0 0 0 0 0 0 0 0 0 0 0 0 0 0 0 0 0 0 0 0 0 0 0 0 0 0 0 0 0 0 0 0
Wind_Speed_500mb
21 23 41 40 38 36 33 29 24 20 19 17 15 12 9 7 7 7 7 6 4 4 6 6 4 7 7 5 7 8 9 10 14 15 13 12 14 16 15 15 18 17 16
24 26 40 39 38 36 34 30 27 23 21 18 16 14 11 9 7 6 5 3 3 3 2 4 4 6 7 6 6 7 7 6 10 12 12 11 5 7 8 9 11 11 11
22 27 40 40 38 37 34 31 29 26 23 19 18 15 16 14 12 9 7 8 9 5 3 4 5 4 2 2 5 7 7 7 7 12 16 12 11 3 4 5 5 5 5
16 22 37 40 38 38 37 34 31 28 24 22 22 19 19 18 19 18 14 14 14 16 9 7 7 6 4 1 2 3 5 7 10 15 18 6 9 13 5 4 4 3 3
21 22 32 39 41 40 38 35 33 31 29 26 24 22 22 25 26 25 22 21 20 17 9 12 12 11 11 10 8 7 7 7 10 12 11 15 3 5 2 4 2 2 3
22 31 31 38 42 41 41 39 36 34 33 31 28 26 25 24 22 20 20 20 21 18 13 15 14 14 12 11 12 11 11 12 15 14 13 22 20 11 2 2 4 3 4
22 33 33 34 43 44 43 42 41 38 37 34 30 30 27 21 18 20 20 20 20 17 16 15 13 13 11 9 8 9 12 14 16 16 22 22 21 23 15 12 10 8 9
22 30 35 34 40 46 45 44 44 42 41 39 37 37 37 23 21 20 21 20 19 16 16 14 12 8 4 4 4 5 6 9 10 11 19 18 16 15 14 15 14 14 14
22 28 35 36 40 47 48 48 47 45 46 46 44 43 33 29 25 20 21 21 20 19 17 13 11 9 6 5 5 5 6 8 7 12 18 11 12 13 13 15 15 15 15
24 33 34 37 40 47 50 50 50 49 49 50 50 47 39 36 30 26 25 23 22 21 18 14 12 9 8 7 7 7 8 9 10 15 13 13 14 15 14 15 15 16 16
31 36 37 41 42 46 50 51 52 52 51 54 54 52 48 45 36 34 30 29 28 25 23 21 18 16 14 12 11 11 10 11 11 16 11 14 16 15 15 15 16 17 17
39 41 45 44 48 47 50 54 55 56 56 59 60 58 57 50 43 39 36 35 32 29 28 26 22 20 18 16 15 14 12 14 14 17 14 15 16 17 16 15 15 16 16
40 42 47 49 49 53 52 53 56 60 64 63 61 59 57 50 49 45 43 41 40 36 34 31 27 26 22 20 18 16 16 17 17 18 16 17 18 18 18 17 17 16 16
43 51 52 48 55 56 57 58 59 60 62 68 67 66 62 55 54 53 49 46 45 41 40 37 35 31 27 23 21 20 19 17 16 17 15 16 17 18 18 17 17 15 12
48 45 57 58 52 58 60 62 65 66 62 60 64 66 64 62 59 57 53 50 50 47 46 43 39 35 32 29 26 24 21 19 19 18 16 16 18 18 17 18 14 7 6
49 50 49 63 59 55 60 65 66 66 64 64 61 61 64 68 64 59 57 55 55 51 51 46 42 39 35 33 30 28 25 23 21 20 19 18 18 19 19 17 10 14 21
49 49 48 56 63 59 55 61 64 66 64 66 67 60 61 67 65 62 61 62 59 56 54 51 50 47 43 40 37 34 31 28 26 23 22 21 21 21 23 22 20 19 23
18 38 41 40 55 60 55 56 62 63 64 66 69 68 68 68 67 66 67 67 64 63 59 57 55 52 48 46 43 40 38 34 29 27 25 24 24 24 24 21 23 31 26
17 12 18 34 39 49 55 53 55 58 61 62 66 68 71 71 68 70 70 69 68 68 65 63 60 56 54 51 49 47 43 39 34 32 28 28 29 27 25 27 26 23 27
24 27 28 9 26 33 39 47 52 53 53 58 62 65 68 72 68 70 73 74 73 73 70 67 64 62 60 55 53 49 46 44 40 38 35 33 32 31 30 33 34 32 34
2 7 18 30 22 26 34 35 42 48 45 49 53 52 59 65 69 67 72 77 81 81 76 70 69 67 66 62 58 54 52 50 48 45 41 38 36 36 37 37 38 37 37
39 26 14 7 17 15 20 18 24 24 31 36 40 51 55 57 65 65 66 75 80 81 77 77 77 76 73 72 68 57 40 52 52 53 49 48 44 43 43 42 42 40 40
55 50 37 23 11 5 12 23 23 29 30 29 28 36 43 51 59 66 65 69 79 82 80 80 81 81 83 80 77 57 26 27 37 50 56 54 53 50 49 49 48 45 43
50 46 42 36 27 20 12 5 5 11 17 14 13 28 31 40 50 59 65 65 69 79 82 82 84 85 85 86 81 80 77 52 33 28 43 55 59 57 53 53 52 49 47
50 50 49 44 39 31 22 15 9 3 8 14 19 19 26 33 36 38 48 57 61 72 79 81 87 90 92 92 95 90 85 69 58 55 45 51 54 56 56 56 54 54 52
44 45 45 45 45 41 38 30 20 11 8 2 11 16 19 24 26 28 33 46 54 58 68 76 83 89 91 94 97 96 97 93 85 66 59 58 55 55 57 59 60 60 58
Wind_Direction_500mb
198 182 188 189 190 188 188 187 193 190 191 195 197 206 194 182 160 139 142 160 210 278 313 332 350 9 36 136 121 100 88 83 81 79 68 57 68 75 74 58 58 70 75
210 194 190 197 199 198 198 197 198 205 205 206 206 211 216 209 197 181 184 157 177 256 315 345 344 23 46 87 123 129 113 101 94 85 65 33 40 72 62 58 52 54 60
216 196 193 197 200 203 202 203 204 205 206 203 210 212 223 223 220 213 165 201 207 244 278 313 338 347 46 85 105 120 127 127 115 106 70 14 346 348 10 15 26 44 59
226 205 198 198 203 205 205 205 205 210 212 207 208 208 223 225 224 223 202 207 233 248 260 279 292 279 280 230 164 160 162 151 142 146 131 117 301 331 315 316 332 356 29
208 210 207 206 205 206 208 208 209 210 215 219 225 232 241 242 243 236 223 216 239 260 256 267 269 272 275 268 247 227 211 196 180 190 164 179 205 261 26 46 22 322 341
207 213 213 211 213 212 211 212 215 216 218 223 230 240 228 244 241 230 226 231 242 257 259 262 270 272 265 260 257 246 236 220 216 214 183 204 217 225 71 253 276 313 345
215 210 218 219 216 217 217 216 217 222 225 225 223 220 231 240 234 220 224 233 243 247 252 258 261 263 259 251 244 236 230 225 230 229 225 238 233 257 254 266 264 266 285
231 222 224 225 221 221 219 220 223 224 223 224 224 229 242 250 244 227 230 235 238 240 246 252 258 254 224 177 163 174 191 213 228 229 242 250 252 259 260 270 271 271 270
234 234 235 230 226 224 225 224 225 223 224 226 226 234 239 254 258 241 236 237 239 241 242 237 223 207 198 194 193 198 214 233 245 238 253 266 268 262 261 262 266 270 268
239 250 237 237 230 227 227 228 227 225 225 226 227 233 234 244 252 240 234 234 235 237 239 236 225 218 215 218 222 226 233 248 248 252 272 275 275 277 273 271 274 271 271
251 246 249 238 234 230 231 230 228 226 223 224 229 232 236 241 247 240 234 232 230 230 228 224 218 215 219 225 233 237 244 251 255 266 268 269 272 269 270 275 277 278 279
256 248 249 244 240 236 232 233 231 229 225 225 229 232 235 238 242 238 234 233 230 228 226 223 218 219 221 225 232 241 249 255 262 268 271 271 271 273 274 273 269 270 277
273 264 253 246 241 237 236 233 233 230 231 230 230 233 238 234 237 236 235 232 229 227 226 223 219 223 227 229 229 235 239 247 251 260 264 268 270 270 269 269 273 281 281
249 261 266 255 243 238 235 233 236 238 234 236 233 234 238 238 235 236 235 233 232 230 227 223 222 225 224 227 229 231 236 244 252 256 256 261 265 266 267 266 266 270 280
270 252 256 262 253 244 238 237 235 242 245 240 239 237 236 239 238 237 236 235 234 231 230 228 224 225 225 227 229 233 237 244 252 262 264 264 263 260 256 258 255 257 162
272 276 252 252 257 250 243 241 242 243 245 249 245 243 238 240 241 240 235 238 236 234 233 233 229 229 230 232 235 238 242 247 254 262 267 268 264 262 258 252 226 163 167
285 281 275 248 254 251 246 245 242 245 243 244 252 248 243 241 242 240 236 237 239 238 235 232 230 229 231 233 236 239 242 245 249 255 262 264 265 259 252 244 199 185 203
281 273 277 270 249 254 249 244 245 241 244 243 246 248 246 245 245 242 238 237 239 240 239 235 233 232 233 233 235 237 239 243 246 249 250 253 253 250 249 242 229 200 211
256 241 283 277 268 254 254 249 247 246 242 243 244 247 249 249 245 245 243 240 240 241 240 238 236 236 238 236 237 238 241 243 246 250 251 251 253 253 243 232 231 237 235
250 233 221 240 262 266 259 253 246 248 245 243 244 246 250 253 250 246 243 242 240 240 239 238 236 234 235 237 238 240 241 242 244 247 247 250 250 255 246 241 239 234 232
318 232 226 218 218 242 250 249 240 235 241 241 241 244 246 254 256 250 246 243 242 241 241 240 238 233 232 230 231 235 237 241 242 245 247 250 250 250 249 242 241 238 239
60 64 70 132 198 232 229 235 237 241 247 255 256 250 247 251 257 257 250 246 246 246 241 237 236 232 230 232 229 232 236 241 244 246 249 252 252 251 251 246 242 240 238
59 57 62 70 109 196 206 225 233 226 227 227 240 252 255 248 252 259 257 251 250 250 247 246 242 238 235 233 232 225 211 226 233 239 241 245 249 249 250 247 244 240 237
55 58 58 63 70 84 109 150 208 198 224 226 255 276 276 263 259 261 262 259 254 255 252 248 247 244 240 238 234 231 232 237 218 220 238 241 243 246 246 244 244 237 235
54 51 52 53 55 56 64 69 85 149 234 219 218 244 265 277 279 270 265 263 258 255 256 253 250 247 244 242 241 240 232 232 236 238 234 233 237 242 241 245 242 238 237
45 43 42 44 48 48 48 47 44 33 16 322 219 257 275 282 289 289 273 261 259 257 258 258 256 253 250 249 246 243 242 236 231 231 236 240 245 246 247 249 245 241 239
Wind_Speed_850mb
21 23 41 40 38 36 33 29 24 20 19 17 15 12 9 7 7 7 7 6 4 4 6 6 4 7 7 5 7 8 9 10 14 15 13 12 14 16 15 15 18 17 16
24 26 40 39 38 36 34 30 27 23 21 18 16 14 11 9 7 6 5 3 3 3 2 4 4 6 7 6 6 7 7 6 10 12 12 11 5 7 8 9 11 11 11
22 27 40 40 38 37 34 31 29 26 23 19 18 15 16 14 12 9 7 8 9 5 3 4 5 4 2 2 5 7 7 7 7 12 16 12 11 3 4 5 5 5 5
16 22 37 40 38 38 37 34 31 28 24 22 22 19 19 18 19 18 14 14 14 16 9 7 7 6 4 1 2 3 5 7 10 15 18 6 9 13 5 4 4 3 3
21 22 32 39 41 40 38 35 33 31 29 26 24 22 22 25 26 25 22 21 20 17 9 12 12 11 11 10 8 7 7 7 10 12 11 15 3 5 2 4 2 2 3
22 31 31 38 42 41 41 39 36 34 33 31 28 26 25 24 22 20 20 20 21 18 13 15 14 14 12 11 12 11 11 12 15 14 13 22 20 11 2 2 4 3 4
22 33 33 34 43 44 43 42 41 38 37 34 30 30 27 21 18 20 20 20 20 17 16 15 13 13 11 9 8 9 12 14 16 16 22 22 21 23 15 12 10 8 9
22 30 35 34 40 46 45 44 44 42 41 39 37 37 37 23 21 20 21 20 19 16 16 14 12 8 4 4 4 5 6 9 10 11 19 18 16 15 14 15 14 14 14
22 28 35 36 40 47 48 48 47 45 46 46 44 43 33 29 25 20 21 21 20 19 17 13 11 9 6 5 5 5 6 8 7 12 18 11 12 13 13 15 15 15 15
24 33 34 37 40 47 50 50 50 49 49 50 50 47 39 36 30 26 25 23 22 21 18 14 12 9 8 7 7 7 8 9 10 15 13 13 14 15 14 15 15 16 16
31 36 37 41 42 46 50 51 52 52 51 54 54 52 48 45 36 34 30 29 28 25 23 21 18 16 14 12 11 11 10 11 11 16 11 14 16 15 15 15 16 17 17
39 41 45 44 48 47 50 54 55 56 56 59 60 58 57 50 43 39 36 35 32 29 28 26 22 20 18 16 15 14 12 14 14 17 14 15 16 17 16 15 15 16 16
40 42 47 49 49 53 52 53 56 60 64 63 61 59 57 50 49 45 43 41 40 36 34 31 27 26 22 20 18 16 16 17 17 18 16 17 18 18 18 17 17 16 16
43 51 52 48 55 56 57 58 59 60 62 68 67 66 62 55 54 53 49 46 45 41 40 37 35 31 27 23 21 20 19 17 16 17 15 16 17 18 18 17 17 15 12
48 45 57 58 52 58 60 62 65 66 62 60 64 66 64 62 59 57 53 50 50 47 46 43 39 35 32 29 26 24 21 19 19 18 16 16 18 18 17 18 14 7 6
49 50 49 63 59 55 60 65 66 66 64 64 61 61 64 68 64 59 57 55 55 51 51 46 42 39 35 33 30 28 25 23 21 20 19 18 18 19 19 17 10 14 21
49 49 48 56 63 59 55 61 64 66 64 66 67 60 61 67 65 62 61 62 59 56 54 51 50 47 43 40 37 34 31 28 26 23 22 21 21 21 23 22 20 19 23
18 38 41 40 55 60 55 56 62 63 64 66 69 68 68 68 67 66 67 67 64 63 59 57 55 52 48 46 43 40 38 34 29 27 25 24 24 24 24 21 23 31 26
17 12 18 34 39 49 55 53 55 58 61 62 66 68 71 71 68 70 70 69 68 68 65 63 60 56 54 51 49 47 43 39 34 32 28 28 29 27 25 27 26 23 27
24 27 28 9 26 33 39 47 52 53 53 58 62 65 68 72 68 70 73 74 73 73 70 67 64 62 60 55 53 49 46 44 40 38 35 33 32 31 30 33 34 32 34
2 7 18 30 22 26 34 35 42 48 45 49 53 52 59 65 69 67 72 77 81 81 76 70 69 67 66 62 58 54 52 50 48 45 41 38 36 36 37 37 38 37 37
39 26 14 7 17 15 20 18 24 24 31 36 40 51 55 57 65 65 66 75 80 81 77 77 77 76 73 72 68 57 40 52 52 53 49 48 44 43 43 42 42 40 40
55 50 37 23 11 5 12 23 23 29 30 29 28 36 43 51 59 66 65 69 79 82 80 80 81 81 83 80 77 57 26 27 37 50 56 54 53 50 49 49 48 45 43
50 46 42 36 27 20 12 5 5 11 17 14 13 28 31 40 50 59 65 65 69 79 82 82 84 85 85 86 81 80 77 52 33 28 43 55 59 57 53 53 52 49 47
50 50 49 44 39 31 22 15 9 3 8 14 19 19 26 33 36 38 48 57 61 72 79 81 87 90 92 92 95 90 85 69 58 55 45 51 54 56 56 56 54 54 52
44 45 45 45 45 41 38 30 20 11 8 2 11 16 19 24 26 28 33 46 54 58 68 76 83 89 91 94 97 96 97 93 85 66 59 58 55 55 57 59 60 60 58
Wind_Direction_850mb
198 182 188 189 190 188 188 187 193 190 191 195 197 206 194 182 160 139 142 160 210 278 313 332 350 9 36 136 121 100 88 83 81 79 68 57 68 75 74 58 58 70 75
210 194 190 197 199 198 198 197 198 205 205 206 206 211 216 209 197 181 184 157 177 256 315 345 344 23 46 87 123 129 113 101 94 85 65 33 40 72 62 58 52 54 60
216 196 193 197 200 203 202 203 204 205 206 203 210 212 223 223 220 213 165 201 207 244 278 313 338 347 46 85 105 120 127 127 115 106 70 14 346 348 10 15 26 44 59
226 205 198 198 203 205 205 205 205 210 212 207 208 208 223 225 224 223 202 207 233 248 260 279 292 279 280 230 164 160 162 151 142 146 131 117 301 331 315 316 332 356 29
208 210 207 206 205 206 208 208 209 210 215 219 225 232 241 242 243 236 223 216 239 260 256 267 269 272 275 268 247 227 211 196 180 190 164 179 205 261 26 46 22 322 341
207 213 213 211 213 212 211 212 215 216 218 223 230 240 228 244 241 230 226 231 242 257 259 262 270 272 265 260 257 246 236 220 216 214 183 204 217 225 71 253 276 313 345
215 210 218 219 216 217 217 216 217 222 225 225 223 220 231 240 234 220 224 233 243 247 252 258 261 263 259 251 244 236 230 225 230 229 225 238 233 257 254 266 264 266 285
231 222 224 225 221 221 219 220 223 224 223 224 224 229 242 250 244 227 230 235 238 240 246 252 258 254 224 177 163 174 191 213 228 229 242 250 252 259 260 270 271 271 270
234 234 235 230 226 224 225 224 225 223 224 226 226 234 239 254 258 241 236 237 239 241 242 237 223 207 198 194 193 198 214 233 245 238 253 266 268 262 261 262 266 270 268
239 250 237 237 230 227 227 228 227 225 225 226 227 233 234 244 252 240 234 234 235 237 239 236 225 218 215 218 222 226 233 248 248 252 272 275 275 277 273 271 274 271 271
251 246 249 238 234 230 231 230 228 226 223 224 229 232 236 241 247 240 234 232 230 230 228 224 218 215 219 225 233 237 244 251 255 266 268 269 272 269 270 275 277 278 279
256 248 249 244 240 236 232 233 231 229 225 225 229 232 235 238 242 238 234 233 230 228 226 223 218 219 221 225 232 241 249 255 262 268 271 271 271 273 274 273 269 270 277
273 264 253 246 241 237 236 233 233 230 231 230 230 233 238 234 237 236 235 232 229 227 226 223 219 223 227 229 229 235 239 247 251 260 264 268 270 270 269 269 273 281 281
249 261 266 255 243 238 235 233 236 238 234 236 233 234 238 238 235 236 235 233 232 230 227 223 222 225 224 227 229 231 236 244 252 256 256 261 265 266 267 266 266 270 280
270 252 256 262 253 244 238 237 235 242 245 240 239 237 236 239 238 237 236 235 234 231 230 228 224 225 225 227 229 233 237 244 252 262 264 264 263 260 256 258 255 257 162
272 276 252 252 257 250 243 241 242 243 245 249 245 243 238 240 241 240 235 238 236 234 233 233 229 229 230 232 235 238 242 247 254 262 267 268 264 262 258 252 226 163 167
285 281 275 248 254 251 246 245 242 245 243 244 252 248 243 241 242 240 236 237 239 238 235 232 230 229 231 233 236 239 242 245 249 255 262 264 265 259 252 244 199 185 203
281 273 277 270 249 254 249 244 245 241 244 243 246 248 246 245 245 242 238 237 239 240 239 235 233 232 233 233 235 237 239 243 246 249 250 253 253 250 249 242 229 200 211
256 241 283 277 268 254 254 249 247 246 242 243 244 247 249 249 245 245 243 240 240 241 240 238 236 236 238 236 237 238 241 243 246 250 251 251 253 253 243 232 231 237 235
250 233 221 240 262 266 259 253 246 248 245 243 244 246 250 253 250 246 243 242 240 240 239 238 236 234 235 237 238 240 241 242 244 247 247 250 250 255 246 241 239 234 232
318 232 226 218 218 242 250 249 240 235 241 241 241 244 246 254 256 250 246 243 242 241 241 240 238 233 232 230 231 235 237 241 242 245 247 250 250 250 249 242 241 238 239
60 64 70 132 198 232 229 235 237 241 247 255 256 250 247 251 257 257 250 246 246 246 241 237 236 232 230 232 229 232 236 241 244 246 249 252 252 251 251 246 242 240 238
59 57 62 70 109 196 206 225 233 226 227 227 240 252 255 248 252 259 257 251 250 250 247 246 242 238 235 233 232 225 211 226 233 239 241 245 249 249 250 247 244 240 237
55 58 58 63 70 84 109 150 208 198 224 226 255 276 276 263 259 261 262 259 254 255 252 248 247 244 240 238 234 231 232 237 218 220 238 241 243 246 246 244 244 237 235
54 51 52 53 55 56 64 69 85 149 234 219 218 244 265 277 279 270 265 263 258 255 256 253 250 247 244 242 241 240 232 232 236 238 234 233 237 242 241 245 242 238 237
45 43 42 44 48 48 48 47 44 33 16 322 219 257 275 282 289 289 273 261 259 257 258 258 256 253 250 249 246 243 242 236 231 231 236 240 245 246 247 249 245 241 239